Weather in Santarem

Brazil     2°27′24″S   54°43′04″W
temp.,
°C
wind,
m/s
gust,
m/s
humid.,
%
clouds,
%
prec.,
mm/h
press.,
hPa
HPBL,
m
9 may, sun
sun900:00+23ese1498100 2.6 1014103
03:00+22e1699100 2.9 1012198
06:00+22ene1799100 0.0 1013239
09:00+24ene269476 0.0 1015356
12:00+29e356592 0.0 1014951
15:00+30ene246469 0.4 10101193
18:00+26se249022 1.4 101087
21:00+23ese129584 2.1 101347
10 may, mon
mon1000:00+23e1598100 0.1 1013158
03:00+22ese1399100 0.1 101195
06:00+22ese1399100 0.2 101287
09:00+25e2489100 0.4 1014347
12:00+30e356022 0.6 10131301
15:00+28ene248183 2.0 1010454
18:00+26e11935 3.0 101023
21:00+23e1197100 3.3 101212
11 may, tue
tue1100:00+23e119893 0.1 101316
03:00+22e1199100 0.9 101134
06:00+22e139932 1.1 1012110
09:00+25e259197 1.4 1014412
12:00+30ene355834 0.0 10121344
15:00+31ene345371 0.2 10091266
18:00+26e25835 0.6 1009160
21:00+24e119011 1.0 101220
12 may, wed
wed1200:00+23ene129414 0.0 101248
03:00+22ene149848 0.0 1011122
06:00+22ene169986 0.1 1012194
09:00+27ene257690 0.1 1014542
12:00+29ene246627 1.3 10131154
15:00+29e236536 3.2 10101174
18:00+24ene269540 2.6 1011223
21:00+23e179794 2.9 1013240
13 may, thu
thu1300:00+23ene2897100 0.0 1014271
03:00+22ene1598100 0.1 1012209
06:00+22ene1798100 0.0 1013309
09:00+24ene379168 0.0 1015566
12:00+27ne347385 0.1 1015946
15:00+26e357430 0.2 1012669
18:00+26e1379100 0.0 1011180
21:00+23e119069 0.0 101320